OneWeb SL0145

operational
NORAD ID: 47260 Int'l Des: 2020-100 Owner: ONEWEB Country: UK Constellation: oneweb
LEOCIRCULARPOLARONEWEB_TYPE

Über OneWeb SL0145

Beschreibung wird geladen...

Live-Position

3D-Globus wird geladen...

Nächste Überflüge

Höhenverlauf

Altitude vs Time

uPlot chart will show altitude changes over time

Zweizeiliger Elementsatz

1 47260U 20100C 26035.44063744 -.00000762 00000-0 -21539-2 0 9999
2 47260 87.8947 16.9891 0001800 80.4187 279.7145 13.12445071247315
Epoch: 4. Feb. 2026 • Age: 21 hours

Aktueller Status

Höhe 1226.5 km
Geschwindigkeit 7.24 km/s
Subsatellitenpunkt -31.57°S, 54.01°W
Startdatum 18. Dez. 2020
Alter 5.1 years
Typ internet

Technische Details

Klassifizierung Payload
Masse 148.00 kg
Trockenmasse 140.00 kg
Gesamtmasse 148.00 kg
Länge 1.30 m
Durchmesser 1.00 m
Spannweite 5.00 m
Form Trapezoid+2 pan
Hersteller ONEWUS
Bus-Typ ARROW
Phasenstatus In Orbit
Besitzer/Staat ONEWEB/UK

Große Konstellationen

Loading constellations...